Location: Rancho Penasquitos
(32.9595°N, 117.1153°W)
Time: 00:39:44
(UTC+00:00)

Cosmos 1513 Rocket - Pass Details

Date: 29 June 2022
Orbit: 939 x 1009 km, 82.9° (Epoch: 07 August)

Event Time Altitude Azimuth Distance (km) Brightness Sun altitude
Rises 12:00:34 0° 350° (N) 3,605 7.8 -8.4°
Reaches altitude 10° 12:03:04 10° 347° (NNW) 2,657 7.1 -8.0°
Maximum altitude 12:09:02 65° 267° (W) 1,032 4.5 -6.9°
Drops below altitude 10° 12:15:02 10° 187° (S) 2,662 6.4 -5.9°
Sets 12:17:32 0° 184° (S) 3,611 7.1 -5.4°
